TimeCDT,TemperatureF,Dew PointF,Humidity,Sea Level PressureIn,VisibilityMPH,Wind Direction,Wind SpeedMPH,Gust SpeedMPH,PrecipitationIn,Events,Conditions,WindDirDegrees,DateUTC
12:54 AM,66.9,62.1,84,29.81,10.0,North,6.9,-,N/A,,Clear,10,2012-05-07 05:54:00
1:11 AM,68.0,62.6,83,29.82,10.0,NNE,8.1,-,N/A,,Mostly Cloudy,30,2012-05-07 06:11:00
1:54 AM,66.0,62.1,87,29.79,10.0,NE,11.5,17.3,N/A,,Mostly Cloudy,40,2012-05-07 06:54:00
2:09 AM,66.2,62.6,88,29.80,10.0,NE,10.4,-,N/A,,Scattered Clouds,40,2012-05-07 07:09:00
2:54 AM,66.0,61.0,84,29.80,10.0,East,11.5,-,N/A,,Scattered Clouds,90,2012-05-07 07:54:00
3:47 AM,66.2,62.6,88,29.87,10.0,WNW,10.4,-,N/A,,Mostly Cloudy,290,2012-05-07 08:47:00
3:54 AM,66.9,62.1,84,29.84,10.0,North,4.6,-,N/A,,Mostly Cloudy,10,2012-05-07 08:54:00
4:02 AM,66.2,62.6,88,29.86,10.0,NW,4.6,-,N/A,,Overcast,310,2012-05-07 09:02:00
4:54 AM,64.9,62.1,90,29.84,10.0,Calm,Calm,-,0.00,,Overcast,0,2012-05-07 09:54:00
5:54 AM,64.0,62.1,93,29.84,10.0,North,3.5,-,0.02,Rain,Light Rain,350,2012-05-07 10:54:00
6:54 AM,64.0,62.1,93,29.86,5.0,East,6.9,-,0.01,Rain,Light Rain,90,2012-05-07 11:54:00
7:54 AM,66.0,63.0,90,29.86,7.0,West,5.8,-,0.01,,Scattered Clouds,280,2012-05-07 12:54:00
8:54 AM,66.0,64.0,93,29.86,10.0,NW,6.9,-,N/A,,Scattered Clouds,310,2012-05-07 13:54:00
9:03 AM,66.2,64.4,94,29.88,10.0,Variable,4.6,-,N/A,,Mostly Cloudy,0,2012-05-07 14:03:00
9:51 AM,66.2,62.6,88,29.88,10.0,NNW,6.9,-,N/A,,Overcast,340,2012-05-07 14:51:00
9:54 AM,66.0,62.1,87,29.88,10.0,NNW,8.1,-,N/A,,Overcast,340,2012-05-07 14:54:00
10:01 AM,66.2,62.6,88,29.88,10.0,NNW,8.1,-,N/A,,Overcast,330,2012-05-07 15:01:00
10:42 AM,64.4,60.8,88,29.90,10.0,North,5.8,-,N/A,,Overcast,350,2012-05-07 15:42:00
10:54 AM,66.0,62.1,87,29.89,10.0,Variable,4.6,-,N/A,,Overcast,0,2012-05-07 15:54:00
11:54 AM,66.0,61.0,84,29.90,10.0,NNW,6.9,-,N/A,,Overcast,340,2012-05-07 16:54:00
12:54 PM,64.0,59.0,84,29.89,10.0,North,10.4,16.1,N/A,,Overcast,10,2012-05-07 17:54:00
1:54 PM,64.9,60.1,84,29.89,10.0,North,4.6,-,N/A,,Overcast,360,2012-05-07 18:54:00
2:31 PM,66.2,59.0,78,29.90,10.0,Variable,5.8,-,N/A,,Overcast,0,2012-05-07 19:31:00
2:54 PM,64.9,59.0,81,29.89,10.0,NNW,5.8,-,N/A,,Overcast,330,2012-05-07 19:54:00
3:54 PM,64.0,57.9,80,29.89,10.0,North,5.8,-,N/A,,Overcast,350,2012-05-07 20:54:00
4:07 PM,64.4,57.2,77,29.90,10.0,NNW,6.9,-,N/A,,Overcast,340,2012-05-07 21:07:00
4:34 PM,64.4,59.0,83,29.90,10.0,North,5.8,-,N/A,,Overcast,10,2012-05-07 21:34:00
4:54 PM,66.0,59.0,78,29.88,10.0,NNW,5.8,-,N/A,,Mostly Cloudy,340,2012-05-07 21:54:00
5:54 PM,66.9,59.0,76,29.88,10.0,NNW,3.5,-,N/A,,Scattered Clouds,340,2012-05-07 22:54:00
6:54 PM,66.9,57.9,73,29.87,10.0,Calm,Calm,-,N/A,,Clear,0,2012-05-07 23:54:00
7:54 PM,64.9,59.0,81,29.88,10.0,Calm,Calm,-,N/A,,Clear,0,2012-05-08 00:54:00
8:54 PM,62.1,57.9,86,29.88,10.0,Calm,Calm,-,N/A,,Clear,0,2012-05-08 01:54:00
9:54 PM,59.0,57.0,93,29.90,8.0,Calm,Calm,-,N/A,,Clear,0,2012-05-08 02:54:00
10:54 PM,59.0,55.9,90,29.91,10.0,NW,3.5,-,N/A,,Clear,320,2012-05-08 03:54:00
11:54 PM,59.0,51.1,75,29.90,10.0,NW,3.5,-,N/A,,Clear,320,2012-05-08 04:54:00